Weather History for Lumberton, NC

Change the Weather History Date:

Wednesday, July 3, 2013

  Actual Average Record
Temperature  
Mean Temperature 80 °F 81 °F  
Max Temperature 85 °F 91 °F 97 °F (2012)
Min Temperature 74 °F 71 °F 62 °F (2010)
Degree Days  
Heating Degree Days 0 0  
Month to date heating degree days 0 0  
Since 1 June heating degree days 0 0  
Since 1 July heating degree days 0 0  
Cooling Degree Days 15 16  
Month to date cooling degree days 38 48  
Year to date cooling degree days 631 686  
Since 1 June cooling degree days 439 436  
Growing Degree Days 30 (Base 50)    
Moisture  
Dew Point 74 °F    
Average Humidity 87    
Maximum Humidity 100    
Minimum Humidity 74    
Precipitation  
Precipitation 0.27 in 0.14 in 0.88 in (2001)
Month to date precipitation 1.84 0.41  
Year to date precipitation 27.03 19.82  
Sea Level Pressure  
Sea Level Pressure 30.20 in    
Wind  
Wind Speed 5 mph (SSE)    
Max Wind Speed 17 mph    
Max Gust Speed 22 mph    
Visibility 7 miles    
Events Rain , Thunderstorm    
T = Trace of Precipitation, MM = Missing Value Source: NWS Daily Summary

Daily Weather History Graph

Daily Weather History Graph

Search for Another Location

Airport:

Trip Planner

Search our weather history database for the weather conditions in past years. The results will help you decide how hot, cold, wet, or windy it might be!

Date:

Astronomy

Jul. 03, 2013 Rise Set
Actual Time 6:08 AM EDT 8:32 PM EDT
Civil Twilight 5:38 AM EDT 9:02 PM EDT
Nautical Twilight 5:02 AM EDT 9:38 PM EDT
Astronomical Twilight 4:22 AM EDT 10:17 PM EDT
Moon 2:39 AM EDT (7/3) 4:45 PM EDT (7/3)
Length of Visible Light 15h 23m
Length of Day
14h 24m
Waning Crescent, 18% of the Moon is Illuminated
Jul 3
Waning Crescent
Jul 8
New
Jul 15
First Quarter
Jul 22
Full
Jul 29
Last Quarter

Hourly Weather History & Observations

Time (EDT) Temp. Heat Index Dew Point Humidity Pressure Visibility Wind Dir Wind Speed Gust Speed Precip Events Conditions
12:54 AM 75.0 °F - 73.9 °F 96% 30.17 in 9.0 mi SE 3.5 mph - N/A   Partly Cloudy
1:07 AM 75.2 °F - 73.4 °F 94% 30.17 in 8.0 mi SE 4.6 mph - N/A   Mostly Cloudy
1:17 AM 75.2 °F - 73.4 °F 94% 30.17 in 8.0 mi SSE 4.6 mph - N/A   Mostly Cloudy
1:38 AM 75.2 °F - 73.4 °F 94% 30.17 in 6.0 mi SE 5.8 mph - N/A   Overcast
1:54 AM 75.9 °F - 73.9 °F 94% 30.17 in 6.0 mi SSE 5.8 mph - N/A   Overcast
2:46 AM 75.2 °F - 75.2 °F 100% 30.16 in 7.0 mi SSE 6.9 mph - N/A   Overcast
2:54 AM 75.9 °F - 75.0 °F 97% 30.16 in 7.0 mi SSE 6.9 mph - N/A   Overcast
3:25 AM 75.2 °F - 75.2 °F 100% 30.16 in 7.0 mi SSE 5.8 mph - N/A   Overcast
3:54 AM 75.9 °F - 73.9 °F 94% 30.16 in 7.0 mi SSE 3.5 mph - N/A   Overcast
4:54 AM 75.0 °F - 73.9 °F 96% 30.16 in 6.0 mi SE 3.5 mph - N/A   Overcast
5:43 AM 75.2 °F - 73.4 °F 94% 30.17 in 6.0 mi ESE 5.8 mph - N/A   Overcast
5:54 AM 75.0 °F - 73.9 °F 96% 30.18 in 5.0 mi SE 4.6 mph - N/A   Overcast
6:50 AM 75.2 °F - 75.2 °F 100% 30.19 in 5.0 mi SE 5.8 mph - N/A   Overcast
6:54 AM 75.9 °F - 75.0 °F 97% 30.19 in 5.0 mi SSE 5.8 mph - N/A   Overcast
7:54 AM 77.0 °F - 75.0 °F 94% 30.20 in 7.0 mi SSE 5.8 mph - N/A   Overcast
8:28 AM 78.8 °F - 75.2 °F 89% 30.21 in 8.0 mi SE 6.9 mph - N/A   Overcast
8:54 AM 78.1 °F - 75.0 °F 90% 30.21 in 10.0 mi SE 8.1 mph - N/A   Scattered Clouds
9:54 AM 79.0 °F - 75.0 °F 88% 30.22 in 10.0 mi ESE 6.9 mph - N/A   Scattered Clouds
10:15 AM 80.6 °F 86.2 °F 75.2 °F 84% 30.22 in 10.0 mi SE 6.9 mph - N/A   Mostly Cloudy
10:39 AM 82.4 °F 89.5 °F 75.2 °F 79% 30.22 in 10.0 mi SE 8.1 mph - N/A   Mostly Cloudy
10:54 AM 80.1 °F 85.4 °F 75.9 °F 87% 30.23 in 2.0 mi SE 10.4 mph - 0.03 in Rain Rain
11:04 AM 80.6 °F 86.2 °F 75.2 °F 84% 30.23 in 10.0 mi SE 9.2 mph - 0.00 in   Overcast
11:23 AM 80.6 °F 86.2 °F 75.2 °F 84% 30.23 in 10.0 mi ESE 5.8 mph - 0.00 in   Mostly Cloudy
11:54 AM 81.0 °F 86.7 °F 75.0 °F 82% 30.22 in 10.0 mi SSE 10.4 mph - 0.00 in   Partly Cloudy
12:54 PM 82.0 °F 88.6 °F 75.0 °F 79% 30.23 in 10.0 mi SSE 10.4 mph 17.3 mph N/A   Partly Cloudy
1:54 PM 80.1 °F 83.6 °F 71.1 °F 74% 30.22 in 10.0 mi SE 3.5 mph - N/A   Mostly Cloudy
2:46 PM 78.8 °F - 73.4 °F 83% 30.21 in 10.0 mi WSW 5.8 mph - 0.00 in Thunderstorm Mostly Cloudy
2:54 PM 79.0 °F - 73.9 °F 84% 30.19 in 10.0 mi WSW 8.1 mph - 0.00 in Thunderstorm Scattered Clouds
3:04 PM 80.6 °F 85.4 °F 73.4 °F 79% 30.20 in 10.0 mi WSW 6.9 mph - N/A   Partly Cloudy
3:54 PM 82.9 °F 89.4 °F 73.9 °F 74% 30.19 in 10.0 mi South 6.9 mph - N/A   Partly Cloudy
4:50 PM 84.2 °F 92.3 °F 75.2 °F 74% 30.19 in 10.0 mi Variable 4.6 mph - N/A Thunderstorm Mostly Cloudy
4:54 PM 84.0 °F 91.9 °F 75.0 °F 74% 30.18 in 10.0 mi ESE 4.6 mph - N/A Thunderstorm Mostly Cloudy
5:05 PM 84.2 °F 92.3 °F 75.2 °F 74% 30.19 in 8.0 mi South 11.5 mph 20.7 mph 0.00 in Rain , Thunderstorm Light Rain
5:09 PM 82.4 °F 88.2 °F 73.4 °F 74% 30.19 in 8.0 mi SSE 6.9 mph 20.7 mph 0.00 in Rain Light Rain
5:49 PM 75.2 °F - 73.4 °F 94% 30.19 in 1.8 mi West 8.1 mph - 0.03 in Rain , Thunderstorm Heavy Rain
5:54 PM 75.9 °F - 73.9 °F 94% 30.19 in 2.5 mi WSW 6.9 mph - 0.03 in Rain , Thunderstorm Light Rain
5:56 PM 77.0 °F - 73.4 °F 89% 30.20 in 4.0 mi WSW 8.1 mph - 0.00 in Rain , Thunderstorm Light Rain
6:01 PM 75.2 °F - 73.4 °F 94% 30.21 in 1.2 mi SW 9.2 mph - 0.08 in Rain Heavy Rain
6:08 PM 75.2 °F - 73.4 °F 94% 30.20 in 0.8 mi WSW 8.1 mph - 0.11 in Rain Light Rain
6:11 PM 75.2 °F - 73.4 °F 94% 30.20 in 1.5 mi SW 8.1 mph - 0.12 in Rain Rain
6:25 PM 75.2 °F - 73.4 °F 94% 30.19 in 3.0 mi SSE 4.6 mph - 0.19 in Rain Light Rain
6:32 PM 75.2 °F - 73.4 °F 94% 30.19 in 2.0 mi South 3.5 mph - 0.20 in Rain Light Rain
6:42 PM 75.2 °F - 73.4 °F 94% 30.21 in 10.0 mi SE 3.5 mph - 0.21 in   Mostly Cloudy
6:54 PM 75.9 °F - 73.9 °F 94% 30.21 in 10.0 mi Calm Calm - 0.21 in   Mostly Cloudy
7:54 PM 77.0 °F - 73.0 °F 88% 30.22 in 10.0 mi ESE 3.5 mph - 0.00 in   Partly Cloudy
8:54 PM 75.9 °F - 73.9 °F 94% 30.23 in 10.0 mi Calm Calm - N/A   Mostly Cloudy
9:19 PM 75.2 °F - 73.4 °F 94% 30.24 in 10.0 mi Calm Calm - N/A   Scattered Clouds
9:54 PM 75.0 °F - 73.9 °F 96% 30.24 in 10.0 mi Calm Calm - N/A   Partly Cloudy
10:54 PM 75.0 °F - 73.9 °F 96% 30.23 in 10.0 mi Calm Calm - N/A   Clear
11:54 PM 73.9 °F - 73.0 °F 97% 30.25 in 7.0 mi Calm Calm - N/A   Clear